Content
SEND FEEDBACK

Daily
Averages
Monthly
Summary
United States of America

GENOA, NEVADA


Home > North America > United States > Nevada
Elevation: 733 feet     Latitude: 38 59N     Longitude: 119 53W

WEATHER
 
SELECT A DAY
Number of Records: 176,518;   Date Range: 1/1/95 - 9/30/14
 
SHARE

PRINT THIS DATA

[ ← Previous Day ]
WEATHER ALMANAC - MARCH 23, 2013
[ Next Day → ]
[ °C ]   °F
Weather ElementAverageHighLow
Temperature36.6 °F53.1 °F (1:53 pm)19.9 °F (5:53 am)
Dewpoint15.9 °F21.9 °F (9:53 pm)7 °F (2:53 pm)
Humidity48.3 %78 % (5:53 am)16 % (2:53 pm)
Barometer30.08 in30.17 in (7:53 am)30.02 in (1:53 pm)
Wind Speed2.5 mph12.7 mph (2:53 pm)
Wind Gust19.6 mph (2:53 pm)
Weather ElementAverage
Visibility10 mi
Wind DirectionNNE (29.6 °)

Weather ElementTotal
Precipitation---
Heating Degree Days28.5 (Base 65)
Averaged from 23 records on March 23, 2013
WEATHER CONDITIONS BREAKOUT
WIND DIRECTION BREAKOUT
WEATHER BY HOUR - MARCH 23, 2013
[ °C ]   °F
Local TimeTemperatureDewpointHumidityBarometerVisibilityWind DirectionWind SpeedGust SpeedPrecipitationEventsConditions
1:53 AM26.1 °F16.0 °F66 %30.08 in10.0 miCalmClear
2:53 AM24.1 °F15.1 °F69 %30.09 in10.0 miCalmClear
3:53 AM21.9 °F15.1 °F75 %30.08 in10.0 miCalmClear
4:53 AM21.0 °F14.0 °F74 %30.08 in10.0 miCalmClear
5:53 AM19.9 °F14.0 °F78 %30.10 in10.0 miCalmClear
6:53 AM19.9 °F12.9 °F74 %30.13 in10.0 miCalmClear
7:53 AM21.0 °F12.9 °F71 %30.17 in10.0 miSSW (200°)5.8 mphClear
8:53 AM28.9 °F12.0 °F49 %30.14 in10.0 miCalmClear
9:53 AM37.0 °F9.0 °F31 %30.12 in10.0 miCalmClear
10:53 AM43.0 °F10.0 °F26 %30.10 in10.0 miNE (40°)3.5 mphClear
11:53 AM48.0 °F15.1 °F27 %30.06 in10.0 miNNE (30°)4.6 mphClear
12:53 PM48.9 °F19.9 °F32 %30.05 in10.0 miCalmClear
1:53 PM53.1 °F15.1 °F22 %30.02 in10.0 miSSW (210°)10.4 mph16.1 mphClear
2:53 PM52.0 °F7.0 °F16 %30.03 in10.0 miSSW (200°)12.7 mph19.6 mphClear
3:53 PM52.0 °F14.0 °F22 %30.04 in10.0 miVariable6.9 mph17.3 mphClear
4:53 PM53.1 °F17.1 °F24 %30.03 in10.0 miVariable4.6 mphClear
5:53 PM51.1 °F18.0 °F27 %30.04 in10.0 miVariable4.6 mphClear
6:53 PM45.0 °F21.0 °F39 %30.07 in10.0 miVariable4.6 mphClear
7:53 PM39.9 °F21.0 °F47 %30.10 in10.0 miCalmClear
8:53 PM37.0 °F21.0 °F52 %30.10 in10.0 miCalmClear
9:53 PM35.1 °F21.9 °F59 %30.10 in10.0 miCalmClear
10:53 PM33.1 °F21.9 °F64 %30.09 in10.0 miCalmClear
11:53 PM30.9 °F21.0 °F67 %30.07 in10.0 miCalmClear
Hourly data recorded from KTVL, located miles away from Genoa, Nevada







STORIES FROM OUR PARTNERS